DW6233 Weather Reports


Display with metric or nautical units.
time (UTC)temp
F
wind
direction
speed
MPH
gust
MPH
rain 1hr
in
rain 24hr
in
rain mn
in
humidity
%
barometer
mb
20260510163004 48 133 2.0 10.0 0.00 0.00 0.00 82 1015.0
20260510161501 48 94 3.0 8.0 0.00 0.00 0.00 81 1014.8
20260510160105 48 137 1.0 16.0 0.00 0.00 0.00 81 1014.8
20260510154602 48 64 2.0 7.0 0.00 0.00 0.00 83 1014.3
20260510153104 48 141 4.0 10.0 0.00 0.00 0.00 82 1014.2
20260510151551 49 195 2.0 7.0 0.00 0.00 0.00 80 1014.2
20260510150050 49 135 4.0 10.0 0.00 0.00 0.00 79 1013.7
20260510144548 49 129 3.0 10.0 0.00 0.00 0.00 79 1013.6
20260510143051 49 260 2.0 9.0 0.00 0.00 0.00 79 1013.6
20260510141543 49 211 0.0 5.0 0.00 0.00 0.00 79 1013.3
20260510140002 50 261 1.0 8.0 0.00 0.00 0.00 78 1012.9
20260510134606 50 230 7.0 14.0 0.00 0.00 0.00 78 1012.7
20260510134501 50 142 6.0 13.0 0.00 0.00 0.00 78 1012.7
20260510133059 50 223 4.0 9.0 0.00 0.00 0.00 78 1012.5
20260510131655 50 139 2.0 7.0 0.00 0.00 0.00 79 1012.1
20260510130034 50 146 2.0 11.0 0.00 0.00 0.00 80 1011.9
20260510124534 50 173 5.0 12.0 0.00 0.00 0.00 80 1011.9
20260510123030 50 173 2.0 8.0 0.00 0.00 0.00 79 1011.5
20260510121528 50 153 0.0 5.0 0.00 0.00 0.00 79 1011.3
20260510120027 50 233 1.0 3.0 0.00 0.00 0.00 79 1011.1
20260510114526 50 196 2.0 7.0 0.00 0.00 0.00 80 1010.8
20260510113022 50 117 4.0 12.0 0.00 0.00 0.00 80 1010.4
20260510111519 50 229 4.0 9.0 0.00 0.00 0.00 82 1010.1
20260510110017 50 226 7.0 11.0 0.00 0.00 0.00 83 1010.1
20260510104515 50 190 3.0 6.0 0.00 0.00 0.00 84 1009.9
20260510103013 50 218 3.0 10.0 0.00 0.00 0.00 84 1009.6
20260510101516 50 210 4.0 9.0 0.00 0.00 0.00 84 1009.2
20260510100010 50 172 3.0 9.0 0.00 0.00 0.00 85 1009.0
20260510094509 50 211 3.0 8.0 0.00 0.00 0.00 84 1008.8
20260510093007 50 143 4.0 9.0 0.00 0.00 0.00 84 1008.6
20260510091506 50 228 5.0 13.0 0.00 0.00 0.00 84 1008.2
20260510090005 50 244 7.0 13.0 0.00 0.00 0.00 85 1007.8
20260510084501 51 181 9.0 15.0 0.00 0.00 0.00 84 1007.5
20260510083103 51 200 9.0 16.0 0.00 0.00 0.00 83 1006.9
20260510081556 51 218 11.0 17.0 0.00 0.00 0.00 84 1006.6
20260510080051 52 206 8.0 15.0 0.00 0.00 0.00 84 1006.1
20260510074512 52 209 12.0 20.0 0.00 0.00 0.00 83 1005.7
20260510073008 53 233 3.0 7.0 0.00 0.00 0.00 82 1005.5
20260510071507 53 160 7.0 11.0 0.00 0.00 0.00 82 1005.0
20260510070002 53 132 7.0 15.0 0.00 0.00 0.00 81 1004.4
20260510064601 54 169 4.0 11.0 0.00 0.00 0.00 80 1004.1
20260510063055 54 135 6.0 13.0 0.00 0.00 0.00 80 1003.6
20260510061555 55 185 4.0 11.0 0.00 0.00 0.00 81 1003.4
20260510060050 55 235 5.0 12.0 0.00 0.00 0.00 81 1003.0
20260510054550 55 175 5.0 11.0 0.00 0.00 0.00 82 1002.8
20260510053045 55 138 3.0 8.0 0.00 0.00 0.00 82 1002.4
20260510051543 55 224 4.0 12.0 0.00 0.00 0.00 83 1002.1
20260510050040 56 201 8.0 15.0 0.00 0.00 0.00 82 1001.6
20260510044538 57 237 8.0 16.0 0.00 0.00 0.00 82 1001.0
20260510043035 58 178 9.0 21.0 0.00 0.00 0.00 81 1000.7
20260510041532 58 206 12.0 20.0 0.00 0.00 0.00 81 1000.4
20260510040033 59 226 11.0 23.0 0.00 0.00 0.00 81 1000.0
20260510034530 60 202 14.0 26.0 0.00 0.00 0.00 78 999.8
20260510033027 63 185 15.0 24.0 0.00 0.00 0.00 71 999.6
20260510031538 63 257 5.0 16.0 0.00 0.00 0.00 72 998.9
20260510030024 63 281 9.0 15.0 0.00 0.00 0.00 75 999.0
20260510024534 63 318 13.0 19.0 0.00 0.00 0.00 75 998.7
20260510023022 63 311 12.0 19.0 0.00 0.00 0.00 74 998.3
20260510021524 62 304 11.0 18.0 0.00 0.00 0.00 75 998.3
20260510020021 62 302 12.0 18.0 0.00 0.00 0.00 74 998.3
20260510014519 63 355 10.0 15.0 0.00 0.00 0.00 72 998.0
20260510013019 63 358 11.0 18.0 0.00 0.00 0.00 72 997.9
20260510011527 63 25 12.0 16.0 0.00 0.00 0.00 71 998.2
20260510010019 63 15 14.0 24.0 0.00 0.00 0.00 70 998.0
20260510004512 63 336 11.0 19.0 0.00 0.00 0.00 68 998.2
20260510003110 63 12 9.0 17.0 0.00 0.00 0.00 71 998.1
20260510001556 62 349 9.0 19.0 0.00 0.00 0.00 72 998.1
20260510000100 62 22 10.0 22.0 0.00 0.00 0.00 71 998.3
20260509234603 62 18 12.0 19.0 0.00 0.00 0.00 73 998.4
20260509233042 62 22 10.0 17.0 0.00 0.00 0.00 73 998.5
20260509231503 62 356 16.0 24.0 0.00 0.00 0.00 70 998.6
20260509230016 62 332 12.0 25.0 0.00 0.00 0.00 71 998.6
20260509224532 62 337 13.0 22.0 0.00 0.00 0.00 73 998.7
20260509223049 62 1 13.0 21.0 0.00 0.00 0.00 72 998.8
20260509221502 61 3 13.0 22.0 0.00 0.00 0.00 75 998.6
20260509220002 61 353 11.0 20.0 0.00 0.00 0.00 79 998.8
20260509214553 61 340 11.0 19.0 0.00 0.00 0.00 80 998.9
20260509213002 61 29 8.0 15.0 0.00 0.00 0.00 78 998.7
20260509211540 60 353 8.0 16.0 0.00 0.00 0.00 78 998.8
20260509210016 60 19 9.0 14.0 0.00 0.00 0.00 75 998.7
20260509204600 60 16 9.0 17.0 0.00 0.00 0.00 75 998.8
20260509203001 59 7 7.0 16.0 0.00 0.00 0.00 76 998.9
20260509201559 59 10 9.0 15.0 0.00 0.00 0.00 77 998.6
20260509194540 58 31 8.0 16.0 0.00 0.00 0.00 77 998.4
20260509193019 58 357 11.0 15.0 0.00 0.00 0.00 76 998.2
20260509191551 58 357 10.0 20.0 0.00 0.00 0.00 73 998.4
20260509190034 58 343 13.0 22.0 0.00 0.00 0.00 74 997.9
20260509184603 58 37 10.0 21.0 0.00 0.00 0.00 74 998.0
20260509183057 57 3 8.0 17.0 0.00 0.00 0.00 78 998.0
20260509181544 57 354 6.0 13.0 0.00 0.00 0.00 79 998.0
20260509180023 58 353 9.0 15.0 0.00 0.00 0.00 78 997.9
20260509174514 58 16 8.0 14.0 0.00 0.00 0.00 80 997.8
20260509173015 58 8 11.0 20.0 0.00 0.00 0.00 80 997.9
20260509171512 58 344 12.0 26.0 0.00 0.00 0.00 81 998.0
20260509170011 58 351 14.0 22.0 0.00 0.00 0.00 80 998.0
20260509164512 58 358 14.0 23.0 0.00 0.00 0.00 78 997.9